Location: Days
(41.3591°N, 106.7339°W)
Time: 22:12:49
(UTC+00:00)

UWE-3 - Pass Details

Date: 01 July 2022
Orbit: 583 x 677 km, 97.7° (Epoch: 09 August)

Event Time Altitude Azimuth Distance (km) Brightness Sun altitude
Rises 10:19:35 0° 15° (NNE) 2,893 ? -12.1°
Reaches altitude 10° 10:21:47 10° 19° (NNE) 1,997 ? -11.8°
Maximum altitude 10:26:06 64° 100° (E) 706 ? -11.3°
Drops below altitude 10° 10:30:31 10° 183° (S) 2,040 ? -10.7°
Enters shadow 10:31:17 - 184° (S) 2,352 ? -10.6°
